Starlink 30388

operational
NORAD ID: 57784 Int'l Des: 2023-134 Owner: SPXS Country: US Constellation: starlink
LEOCIRCULAR

Starlink 30388について

説明を読み込み中...

リアルタイム位置

3D地球を読み込み中...

次回通過

高度履歴

Altitude vs Time

uPlot chart will show altitude changes over time

軌道要素

1 57784U 23134P 25307.99188389 -.00000003 00000-0 14831-4 0 9991
2 57784 43.0033 160.4613 0001041 261.5716 98.5008 15.02535366120561
Epoch: Nov 3, 2025 • Age: 24 hours

現在のステータス

高度 559.5 km
速度 7.58 km/s
衛星直下点 -4.20°S, 110.44°E
打ち上げ日 Sep 4, 2023
運用期間 2.1 years
タイプ internet

技術仕様

分類 Payload
質量 730.00 kg
乾燥質量 700.00 kg
総質量 730.00 kg
長さ 0.30 m
直径 4.10 m
スパン 29.00 m
形状 Box + pan
製造者 SPXS
バスタイプ Starlink V2M
フェーズステータス In Orbit
所有者/国 SPXS/US

大規模コンステレーション

Loading constellations...